Year,Month,Day,Hour,Minute,Value (Times are PST for temperature in C)
2014,06,17,00,00,9.40
2014,06,17,00,01,9.30
2014,06,17,00,02,9.30
2014,06,17,00,03,9.40
2014,06,17,00,04,9.40
2014,06,17,00,05,9.40
2014,06,17,00,06,9.40
2014,06,17,00,07,9.40
2014,06,17,00,08,9.40
2014,06,17,00,09,9.40
2014,06,17,00,10,9.50
2014,06,17,00,11,9.50
2014,06,17,00,12,9.60
2014,06,17,00,13,9.60
2014,06,17,00,14,9.60
2014,06,17,00,15,9.60
2014,06,17,00,16,9.50
2014,06,17,00,17,9.50
2014,06,17,00,18,9.40
2014,06,17,00,19,9.40
2014,06,17,00,20,9.30
2014,06,17,00,21,9.20
2014,06,17,00,22,9.10
2014,06,17,00,23,9.10
2014,06,17,00,24,9.00
2014,06,17,00,25,9.00
2014,06,17,00,26,8.90
2014,06,17,00,27,8.90
2014,06,17,00,28,8.90
2014,06,17,00,29,8.90
2014,06,17,00,30,8.90
2014,06,17,00,31,9.00
2014,06,17,00,32,9.00
2014,06,17,00,33,9.00
2014,06,17,00,34,9.10
2014,06,17,00,35,9.10
2014,06,17,00,36,9.20
2014,06,17,00,37,9.30
2014,06,17,00,38,9.30
2014,06,17,00,39,9.30
2014,06,17,00,40,9.30
2014,06,17,00,41,9.30
2014,06,17,00,42,9.30
2014,06,17,00,43,9.40
2014,06,17,00,44,9.40
2014,06,17,00,45,9.40
2014,06,17,00,46,9.40
2014,06,17,00,47,9.40
2014,06,17,00,48,9.40
2014,06,17,00,49,9.40
2014,06,17,00,50,9.40
2014,06,17,00,51,9.40
2014,06,17,00,52,9.40
2014,06,17,00,53,9.40
2014,06,17,00,54,9.40
2014,06,17,00,55,9.40
2014,06,17,00,56,9.40
2014,06,17,00,57,9.40
2014,06,17,00,58,9.40
2014,06,17,00,59,9.40
2014,06,17,01,00,9.40
2014,06,17,01,01,9.40
2014,06,17,01,02,9.40
2014,06,17,01,03,9.40
2014,06,17,01,04,9.40
2014,06,17,01,05,9.40
2014,06,17,01,06,9.40
2014,06,17,01,07,9.40
2014,06,17,01,08,9.40
2014,06,17,01,09,9.40
2014,06,17,01,10,9.30
2014,06,17,01,11,9.30
2014,06,17,01,12,9.20
2014,06,17,01,13,9.10
2014,06,17,01,14,9.10
2014,06,17,01,15,9.00
2014,06,17,01,16,9.00
2014,06,17,01,17,9.00
2014,06,17,01,18,9.00
2014,06,17,01,19,9.00
2014,06,17,01,20,9.00
2014,06,17,01,21,8.90
2014,06,17,01,22,8.90
2014,06,17,01,23,8.90
2014,06,17,01,24,8.90
2014,06,17,01,25,8.90
2014,06,17,01,26,8.90
2014,06,17,01,27,8.90
2014,06,17,01,28,8.90
2014,06,17,01,29,8.80
2014,06,17,01,30,8.80
2014,06,17,01,31,8.80
2014,06,17,01,32,8.80
2014,06,17,01,33,8.90
2014,06,17,01,34,8.90
2014,06,17,01,35,8.90
2014,06,17,01,36,8.90
2014,06,17,01,37,9.00
2014,06,17,01,38,9.00
2014,06,17,01,39,9.00
2014,06,17,01,40,9.10
2014,06,17,01,41,9.10
2014,06,17,01,42,9.10
2014,06,17,01,43,9.10
2014,06,17,01,44,9.10
2014,06,17,01,45,9.10
2014,06,17,01,46,9.10
2014,06,17,01,47,9.10
2014,06,17,01,48,9.10
2014,06,17,01,49,9.10
2014,06,17,01,50,9.10
2014,06,17,01,51,9.10
2014,06,17,01,52,9.10
2014,06,17,01,53,9.10
2014,06,17,01,54,9.10
2014,06,17,01,55,9.10
2014,06,17,01,56,9.10
2014,06,17,01,57,9.10
2014,06,17,01,58,9.10
2014,06,17,01,59,9.10
2014,06,17,02,00,9.10
2014,06,17,02,01,9.10
2014,06,17,02,02,9.10
2014,06,17,02,03,9.10
2014,06,17,02,04,9.10
2014,06,17,02,05,9.10
2014,06,17,02,06,9.10
2014,06,17,02,07,9.10
2014,06,17,02,08,9.00
2014,06,17,02,09,9.00
2014,06,17,02,10,9.00
2014,06,17,02,11,8.90
2014,06,17,02,12,8.90
2014,06,17,02,13,8.90
2014,06,17,02,14,8.90
2014,06,17,02,15,8.90
2014,06,17,02,16,8.90
2014,06,17,02,17,8.90
2014,06,17,02,18,8.80
2014,06,17,02,19,8.80
2014,06,17,02,20,8.80
2014,06,17,02,21,8.80
2014,06,17,02,22,8.70
2014,06,17,02,23,8.70
2014,06,17,02,24,8.70
2014,06,17,02,25,8.70
2014,06,17,02,26,8.70
2014,06,17,02,27,8.70
2014,06,17,02,28,8.80
2014,06,17,02,29,8.80
2014,06,17,02,30,8.80
2014,06,17,02,31,8.90
2014,06,17,02,32,8.90
2014,06,17,02,33,8.90
2014,06,17,02,34,8.90
2014,06,17,02,35,8.90
2014,06,17,02,36,8.90
2014,06,17,02,37,8.90
2014,06,17,02,38,8.90
2014,06,17,02,39,8.90
2014,06,17,02,40,8.80
2014,06,17,02,41,8.80
2014,06,17,02,42,8.80
2014,06,17,02,43,8.80
2014,06,17,02,44,8.80
2014,06,17,02,45,8.80
2014,06,17,02,46,8.80
2014,06,17,02,47,8.80
2014,06,17,02,48,8.80
2014,06,17,02,49,8.80
2014,06,17,02,50,8.80
2014,06,17,02,51,8.80
2014,06,17,02,52,8.80
2014,06,17,02,53,8.80
2014,06,17,02,54,8.80
2014,06,17,02,55,8.80
2014,06,17,02,56,8.80
2014,06,17,02,57,8.80
2014,06,17,02,58,8.80
2014,06,17,02,59,8.80
2014,06,17,03,00,8.80
2014,06,17,03,01,8.80
2014,06,17,03,02,8.80
2014,06,17,03,03,8.80
2014,06,17,03,04,8.80
2014,06,17,03,05,8.80
2014,06,17,03,06,8.80
2014,06,17,03,07,8.90
2014,06,17,03,08,8.90
2014,06,17,03,09,9.00
2014,06,17,03,10,9.10
2014,06,17,03,11,9.10
2014,06,17,03,12,9.20
2014,06,17,03,13,9.20
2014,06,17,03,14,9.20
2014,06,17,03,15,9.20
2014,06,17,03,16,9.20
2014,06,17,03,17,9.20
2014,06,17,03,18,9.10
2014,06,17,03,19,9.10
2014,06,17,03,20,9.10
2014,06,17,03,21,9.10
2014,06,17,03,22,9.00
2014,06,17,03,23,9.00
2014,06,17,03,24,9.00
2014,06,17,03,25,9.00
2014,06,17,03,26,9.10
2014,06,17,03,27,9.10
2014,06,17,03,28,9.10
2014,06,17,03,29,9.10
2014,06,17,03,30,9.20
2014,06,17,03,31,9.30
2014,06,17,03,32,9.30
2014,06,17,03,33,9.40
2014,06,17,03,34,9.50
2014,06,17,03,35,9.60
2014,06,17,03,36,9.70
2014,06,17,03,37,9.70
2014,06,17,03,38,9.80
2014,06,17,03,39,9.90
2014,06,17,03,40,9.90
2014,06,17,03,41,10.00
2014,06,17,03,42,10.10
2014,06,17,03,43,10.10
2014,06,17,03,44,10.20
2014,06,17,03,45,10.20
2014,06,17,03,46,10.20
2014,06,17,03,47,10.20
2014,06,17,03,48,10.20
2014,06,17,03,49,10.20
2014,06,17,03,50,10.20
2014,06,17,03,51,10.30
2014,06,17,03,52,10.30
2014,06,17,03,53,10.30
2014,06,17,03,54,10.30
2014,06,17,03,55,10.30
2014,06,17,03,56,10.30
2014,06,17,03,57,10.30
2014,06,17,03,58,10.30
2014,06,17,03,59,10.30
2014,06,17,04,00,10.30
2014,06,17,04,01,10.20
2014,06,17,04,02,10.20
2014,06,17,04,03,10.20
2014,06,17,04,04,10.20
2014,06,17,04,05,10.20
2014,06,17,04,06,10.20
2014,06,17,04,07,10.20
2014,06,17,04,08,10.20
2014,06,17,04,09,10.20
2014,06,17,04,10,10.20
2014,06,17,04,11,10.20
2014,06,17,04,12,10.20
2014,06,17,04,13,10.20
2014,06,17,04,14,10.20
2014,06,17,04,15,10.10
2014,06,17,04,16,10.10
2014,06,17,04,17,10.10
2014,06,17,04,18,10.10
2014,06,17,04,19,10.10
2014,06,17,04,20,10.10
2014,06,17,04,21,10.10
2014,06,17,04,22,10.10
2014,06,17,04,23,10.10
2014,06,17,04,24,10.10
2014,06,17,04,25,10.10
2014,06,17,04,26,10.10
2014,06,17,04,27,10.10
2014,06,17,04,28,10.10
2014,06,17,04,29,10.10
2014,06,17,04,30,10.10
2014,06,17,04,31,10.00
2014,06,17,04,32,10.00
2014,06,17,04,33,10.00
2014,06,17,04,34,10.00
2014,06,17,04,35,10.00
2014,06,17,04,36,10.00
2014,06,17,04,37,10.00
2014,06,17,04,38,9.90
2014,06,17,04,39,9.90
2014,06,17,04,40,9.90
2014,06,17,04,41,9.90
2014,06,17,04,42,9.90
2014,06,17,04,43,9.90
2014,06,17,04,44,9.90
2014,06,17,04,45,9.90
2014,06,17,04,46,9.90
2014,06,17,04,47,9.90
2014,06,17,04,48,9.80
2014,06,17,04,49,9.80
2014,06,17,04,50,9.80
2014,06,17,04,51,9.80
2014,06,17,04,52,9.80
2014,06,17,04,53,9.80
2014,06,17,04,54,9.80
2014,06,17,04,55,9.80
2014,06,17,04,56,9.80
2014,06,17,04,57,9.80
2014,06,17,04,58,9.80
2014,06,17,04,59,9.80
2014,06,17,05,00,9.80
2014,06,17,05,01,9.80
2014,06,17,05,02,9.70
2014,06,17,05,03,9.70
2014,06,17,05,04,9.70
2014,06,17,05,05,9.70
2014,06,17,05,06,9.70
2014,06,17,05,07,9.70
2014,06,17,05,08,9.70
2014,06,17,05,09,9.60
2014,06,17,05,10,9.60
2014,06,17,05,11,9.60
2014,06,17,05,12,9.60
2014,06,17,05,13,9.60
2014,06,17,05,14,9.60
2014,06,17,05,15,9.60
2014,06,17,05,16,9.60
2014,06,17,05,17,9.60
2014,06,17,05,18,9.60
2014,06,17,05,19,9.60
2014,06,17,05,20,9.60
2014,06,17,05,21,9.50
2014,06,17,05,22,9.50
2014,06,17,05,23,9.50
2014,06,17,05,24,9.50
2014,06,17,05,25,9.50
2014,06,17,05,26,9.60
2014,06,17,05,27,9.60
2014,06,17,05,28,9.60
2014,06,17,05,29,9.60
2014,06,17,05,30,9.60
2014,06,17,05,31,9.60
2014,06,17,05,32,9.60
2014,06,17,05,33,9.60
2014,06,17,05,34,9.60
2014,06,17,05,35,9.60
2014,06,17,05,36,9.60
2014,06,17,05,37,9.60
2014,06,17,05,38,9.60
2014,06,17,05,39,9.60
2014,06,17,05,40,9.60
2014,06,17,05,41,9.60
2014,06,17,05,42,9.60
2014,06,17,05,43,9.60
2014,06,17,05,44,9.60
2014,06,17,05,45,9.60
2014,06,17,05,46,9.60
2014,06,17,05,47,9.60
2014,06,17,05,48,9.60
2014,06,17,05,49,9.70
2014,06,17,05,50,9.70
2014,06,17,05,51,9.70
2014,06,17,05,52,9.70
2014,06,17,05,53,9.70
2014,06,17,05,54,9.70
2014,06,17,05,55,9.70
2014,06,17,05,56,9.70
2014,06,17,05,57,9.70
2014,06,17,05,58,9.70
2014,06,17,05,59,9.70
2014,06,17,06,00,9.70
2014,06,17,06,01,9.70
2014,06,17,06,02,9.70
2014,06,17,06,03,9.70
2014,06,17,06,04,9.70
2014,06,17,06,05,9.70
2014,06,17,06,06,9.70
2014,06,17,06,07,9.70
2014,06,17,06,08,9.70
2014,06,17,06,09,9.70
2014,06,17,06,10,9.70
2014,06,17,06,11,9.70
2014,06,17,06,12,9.70
2014,06,17,06,13,9.80
2014,06,17,06,14,9.70
2014,06,17,06,15,9.70
2014,06,17,06,16,9.70
2014,06,17,06,17,9.70
2014,06,17,06,18,9.70
2014,06,17,06,19,9.70
2014,06,17,06,20,9.70
2014,06,17,06,21,9.70
2014,06,17,06,22,9.80
2014,06,17,06,23,9.80
2014,06,17,06,24,9.80
2014,06,17,06,25,9.80
2014,06,17,06,26,9.80
2014,06,17,06,27,9.90
2014,06,17,06,28,9.90
2014,06,17,06,29,9.90
2014,06,17,06,30,9.90
2014,06,17,06,31,9.90
2014,06,17,06,32,10.00
2014,06,17,06,33,10.00
2014,06,17,06,34,10.00
2014,06,17,06,35,10.10
2014,06,17,06,36,10.10
2014,06,17,06,37,10.10
2014,06,17,06,38,10.20
2014,06,17,06,39,10.20
2014,06,17,06,40,10.20
2014,06,17,06,41,10.20
2014,06,17,06,42,10.30
2014,06,17,06,43,10.30
2014,06,17,06,44,10.30
2014,06,17,06,45,10.40
2014,06,17,06,46,10.40
2014,06,17,06,47,10.40
2014,06,17,06,48,10.50
2014,06,17,06,49,10.50
2014,06,17,06,50,10.50
2014,06,17,06,51,10.60
2014,06,17,06,52,10.60
2014,06,17,06,53,10.60
2014,06,17,06,54,10.70
2014,06,17,06,55,10.70
2014,06,17,06,56,10.70
2014,06,17,06,57,10.70
2014,06,17,06,58,10.70
2014,06,17,06,59,10.70
2014,06,17,07,00,10.70
2014,06,17,07,01,10.70
2014,06,17,07,02,10.70
2014,06,17,07,03,10.70
2014,06,17,07,04,10.70
2014,06,17,07,05,10.80
2014,06,17,07,06,10.80
2014,06,17,07,07,10.80
2014,06,17,07,08,10.80
2014,06,17,07,09,10.80
2014,06,17,07,10,10.80
2014,06,17,07,11,10.90
2014,06,17,07,12,10.90
2014,06,17,07,13,10.90
2014,06,17,07,14,11.00
2014,06,17,07,15,11.00
2014,06,17,07,16,11.00
2014,06,17,07,17,11.10
2014,06,17,07,18,11.10
2014,06,17,07,19,11.20
2014,06,17,07,20,11.20
2014,06,17,07,21,11.30
2014,06,17,07,22,11.30
2014,06,17,07,23,11.30
2014,06,17,07,24,11.30
2014,06,17,07,25,11.30
2014,06,17,07,26,11.30
2014,06,17,07,27,11.30
2014,06,17,07,28,11.40
2014,06,17,07,29,11.40
2014,06,17,07,30,11.40
2014,06,17,07,31,11.50
2014,06,17,07,32,11.50
2014,06,17,07,33,11.60
2014,06,17,07,34,11.60
2014,06,17,07,35,11.60
2014,06,17,07,36,11.70
2014,06,17,07,37,11.70
2014,06,17,07,38,11.70
2014,06,17,07,39,11.80
2014,06,17,07,40,11.80
2014,06,17,07,41,11.80
2014,06,17,07,42,11.80
2014,06,17,07,43,11.80
2014,06,17,07,44,11.80
2014,06,17,07,45,11.90
2014,06,17,07,46,11.90
2014,06,17,07,47,11.90
2014,06,17,07,48,11.90
2014,06,17,07,49,11.90
2014,06,17,07,50,11.90
2014,06,17,07,51,11.90
2014,06,17,07,52,12.00
2014,06,17,07,53,12.00
2014,06,17,07,54,12.00
2014,06,17,07,55,12.00
2014,06,17,07,56,12.00
2014,06,17,07,57,12.00
2014,06,17,07,58,12.00
2014,06,17,07,59,12.00
2014,06,17,08,00,12.00
2014,06,17,08,01,12.10
2014,06,17,08,02,12.10
2014,06,17,08,03,12.10
2014,06,17,08,04,12.20
2014,06,17,08,05,12.20
2014,06,17,08,06,12.20
2014,06,17,08,07,12.30
2014,06,17,08,08,12.30
2014,06,17,08,09,12.30
2014,06,17,08,10,12.40
2014,06,17,08,11,12.40
2014,06,17,08,12,12.40
2014,06,17,08,13,12.30
2014,06,17,08,14,12.30
2014,06,17,08,15,12.30
2014,06,17,08,16,12.30
2014,06,17,08,17,12.30
2014,06,17,08,18,12.30
2014,06,17,08,19,12.30
2014,06,17,08,20,12.30
2014,06,17,08,21,12.30
2014,06,17,08,22,12.30
2014,06,17,08,23,12.30
2014,06,17,08,24,12.30
2014,06,17,08,25,12.30
2014,06,17,08,26,12.30
2014,06,17,08,27,12.40
2014,06,17,08,28,12.40
2014,06,17,08,29,12.40
2014,06,17,08,30,12.40
2014,06,17,08,31,12.40
2014,06,17,08,32,12.40
2014,06,17,08,33,12.40
2014,06,17,08,34,12.40
2014,06,17,08,35,12.40
2014,06,17,08,36,12.40
2014,06,17,08,37,12.40
2014,06,17,08,38,12.40
2014,06,17,08,39,12.40
2014,06,17,08,40,12.40
2014,06,17,08,41,12.40
2014,06,17,08,42,12.40
2014,06,17,08,43,12.40
2014,06,17,08,44,12.40
2014,06,17,08,45,12.40
2014,06,17,08,46,12.40
2014,06,17,08,47,12.40
2014,06,17,08,48,12.40
2014,06,17,08,49,12.40
2014,06,17,08,50,12.40
2014,06,17,08,51,12.50
2014,06,17,08,52,12.50
2014,06,17,08,53,12.60
2014,06,17,08,54,12.60
2014,06,17,08,55,12.70
2014,06,17,08,56,12.70
2014,06,17,08,57,12.70
2014,06,17,08,58,12.70
2014,06,17,08,59,12.70
2014,06,17,09,00,12.70
2014,06,17,09,01,12.70
2014,06,17,09,02,12.70
2014,06,17,09,03,12.70
2014,06,17,09,04,12.70
2014,06,17,09,05,12.70
2014,06,17,09,06,12.80
2014,06,17,09,07,12.80
2014,06,17,09,08,12.80
2014,06,17,09,09,12.80
2014,06,17,09,10,12.80
2014,06,17,09,11,12.80
2014,06,17,09,12,12.80
2014,06,17,09,13,12.90
2014,06,17,09,14,12.90
2014,06,17,09,15,12.90
2014,06,17,09,16,12.80
2014,06,17,09,17,12.80
2014,06,17,09,18,12.80
2014,06,17,09,19,12.80
2014,06,17,09,20,12.90
2014,06,17,09,21,12.90
2014,06,17,09,22,12.90
2014,06,17,09,23,13.00
2014,06,17,09,24,13.00
2014,06,17,09,25,13.10
2014,06,17,09,26,13.10
2014,06,17,09,27,13.20
2014,06,17,09,28,13.20
2014,06,17,09,29,13.30
2014,06,17,09,30,13.30
2014,06,17,09,31,13.30
2014,06,17,09,32,13.30
2014,06,17,09,33,13.30
2014,06,17,09,34,13.30
2014,06,17,09,35,13.30
2014,06,17,09,36,13.40
2014,06,17,09,37,13.40
2014,06,17,09,38,13.50
2014,06,17,09,39,13.50
2014,06,17,09,40,13.60
2014,06,17,09,41,13.60
2014,06,17,09,42,13.70
2014,06,17,09,43,13.70
2014,06,17,09,44,13.70
2014,06,17,09,45,13.70
2014,06,17,09,46,13.70
2014,06,17,09,47,13.70
2014,06,17,09,48,13.60
2014,06,17,09,49,13.60
2014,06,17,09,50,13.50
2014,06,17,09,51,13.40
2014,06,17,09,52,13.40
2014,06,17,09,53,13.40
2014,06,17,09,54,13.30
2014,06,17,09,55,13.30
2014,06,17,09,56,13.30
2014,06,17,09,57,13.40
2014,06,17,09,58,13.40
2014,06,17,09,59,13.40
2014,06,17,10,00,13.30
2014,06,17,10,01,13.30
2014,06,17,10,02,13.30
2014,06,17,10,03,13.30
2014,06,17,10,04,13.30
2014,06,17,10,05,13.30
2014,06,17,10,06,13.30
2014,06,17,10,07,13.20
2014,06,17,10,08,13.30
2014,06,17,10,09,13.30
2014,06,17,10,10,13.30
2014,06,17,10,11,13.30
2014,06,17,10,12,13.30
2014,06,17,10,13,13.40
2014,06,17,10,14,13.40
2014,06,17,10,15,13.40
2014,06,17,10,16,13.40
2014,06,17,10,17,13.50
2014,06,17,10,18,13.50
2014,06,17,10,19,13.50
2014,06,17,10,20,13.50
2014,06,17,10,21,13.60
2014,06,17,10,22,13.60
2014,06,17,10,23,13.60
2014,06,17,10,24,13.60
2014,06,17,10,25,13.60
2014,06,17,10,26,13.60
2014,06,17,10,27,13.60
2014,06,17,10,28,13.50
2014,06,17,10,29,13.50
2014,06,17,10,30,13.50
2014,06,17,10,31,13.50
2014,06,17,10,32,13.40
2014,06,17,10,33,13.50
2014,06,17,10,34,13.50
2014,06,17,10,35,13.50
2014,06,17,10,36,13.50
2014,06,17,10,37,13.60
2014,06,17,10,38,13.60
2014,06,17,10,39,13.70
2014,06,17,10,40,13.70
2014,06,17,10,41,13.70
2014,06,17,10,42,13.80
2014,06,17,10,43,13.80
2014,06,17,10,44,13.90
2014,06,17,10,45,13.90
2014,06,17,10,46,14.00
2014,06,17,10,47,14.10
2014,06,17,10,48,14.10
2014,06,17,10,49,14.10
2014,06,17,10,50,14.20
2014,06,17,10,51,14.20
2014,06,17,10,52,14.20
2014,06,17,10,53,14.20
2014,06,17,10,54,14.20
2014,06,17,10,55,14.20
2014,06,17,10,56,14.20
2014,06,17,10,57,14.30
2014,06,17,10,58,14.30
2014,06,17,10,59,14.30
2014,06,17,11,00,14.40
2014,06,17,11,01,14.50
2014,06,17,11,02,14.50
2014,06,17,11,03,14.50
2014,06,17,11,04,14.50
2014,06,17,11,05,14.50
2014,06,17,11,06,14.50
2014,06,17,11,07,14.60
2014,06,17,11,08,14.50
2014,06,17,11,09,14.50
2014,06,17,11,10,14.50
2014,06,17,11,11,14.60
2014,06,17,11,12,14.50
2014,06,17,11,13,14.50
2014,06,17,11,14,14.50
2014,06,17,11,15,14.50
2014,06,17,11,16,14.60
2014,06,17,11,17,14.70
2014,06,17,11,18,14.80
2014,06,17,11,19,14.80
2014,06,17,11,20,14.80
2014,06,17,11,21,14.90
2014,06,17,11,22,15.00
2014,06,17,11,23,15.10
2014,06,17,11,24,15.10
2014,06,17,11,25,15.00
2014,06,17,11,26,15.00
2014,06,17,11,27,15.10
2014,06,17,11,28,15.10
2014,06,17,11,29,15.10
2014,06,17,11,30,15.20
2014,06,17,11,31,15.20
2014,06,17,11,32,15.20
2014,06,17,11,33,15.20
2014,06,17,11,34,15.20
2014,06,17,11,35,15.20
2014,06,17,11,36,15.20
2014,06,17,11,37,15.30
2014,06,17,11,38,15.30
2014,06,17,11,39,15.40
2014,06,17,11,40,15.40
2014,06,17,11,41,15.40
2014,06,17,11,42,15.40
2014,06,17,11,43,15.30
2014,06,17,11,44,15.30
2014,06,17,11,45,15.20
2014,06,17,11,46,15.30
2014,06,17,11,47,15.30
2014,06,17,11,48,15.40
2014,06,17,11,49,15.40
2014,06,17,11,50,15.40
2014,06,17,11,51,15.40
2014,06,17,11,52,15.40
2014,06,17,11,53,15.40
2014,06,17,11,54,15.40
2014,06,17,11,55,15.40
2014,06,17,11,56,15.40
2014,06,17,11,57,15.40
2014,06,17,11,58,15.40
2014,06,17,11,59,15.50
2014,06,17,12,00,15.50
2014,06,17,12,01,15.60
2014,06,17,12,02,15.60
2014,06,17,12,03,15.70
2014,06,17,12,04,15.70
2014,06,17,12,05,15.70
2014,06,17,12,06,15.70
2014,06,17,12,07,15.70
2014,06,17,12,08,15.70
2014,06,17,12,09,15.80
2014,06,17,12,10,15.80
2014,06,17,12,11,15.90
2014,06,17,12,12,15.90
2014,06,17,12,13,16.00
2014,06,17,12,14,16.00
2014,06,17,12,15,16.00
2014,06,17,12,16,16.00
2014,06,17,12,17,16.10
2014,06,17,12,18,16.10
2014,06,17,12,19,16.10
2014,06,17,12,20,16.20
2014,06,17,12,21,16.20
2014,06,17,12,22,16.20
2014,06,17,12,23,16.30
2014,06,17,12,24,16.30
2014,06,17,12,25,16.30
2014,06,17,12,26,16.30
2014,06,17,12,27,16.30
2014,06,17,12,28,16.40
2014,06,17,12,29,16.40
2014,06,17,12,30,16.50
2014,06,17,12,31,16.60
2014,06,17,12,32,16.70
2014,06,17,12,33,16.60
2014,06,17,12,34,16.60
2014,06,17,12,35,16.60
2014,06,17,12,36,16.50
2014,06,17,12,37,16.40
2014,06,17,12,38,16.30
2014,06,17,12,39,16.30
2014,06,17,12,40,16.30
2014,06,17,12,41,16.30
2014,06,17,12,42,16.30
2014,06,17,12,43,16.30
2014,06,17,12,44,16.30
2014,06,17,12,45,16.40
2014,06,17,12,46,16.40
2014,06,17,12,47,16.30
2014,06,17,12,48,16.20
2014,06,17,12,49,16.10
2014,06,17,12,50,15.90
2014,06,17,12,51,15.80
2014,06,17,12,52,15.90
2014,06,17,12,53,15.90
2014,06,17,12,54,15.90
2014,06,17,12,55,15.90
2014,06,17,12,56,15.90
2014,06,17,12,57,15.90
2014,06,17,12,58,15.80
2014,06,17,12,59,15.70
2014,06,17,13,00,15.50
2014,06,17,13,01,15.40
2014,06,17,13,02,15.20
2014,06,17,13,03,15.00
2014,06,17,13,04,14.80
2014,06,17,13,05,14.70
2014,06,17,13,06,14.60
2014,06,17,13,07,14.60
2014,06,17,13,08,14.50
2014,06,17,13,09,14.50
2014,06,17,13,10,14.50
2014,06,17,13,11,14.60
2014,06,17,13,12,14.60
2014,06,17,13,13,14.70
2014,06,17,13,14,14.60
2014,06,17,13,15,14.60
2014,06,17,13,16,14.50
2014,06,17,13,17,14.50
2014,06,17,13,18,14.60
2014,06,17,13,19,14.70
2014,06,17,13,20,14.80
2014,06,17,13,21,14.80
2014,06,17,13,22,14.80
2014,06,17,13,23,14.90
2014,06,17,13,24,15.00
2014,06,17,13,25,15.00
2014,06,17,13,26,14.90
2014,06,17,13,27,14.80
2014,06,17,13,28,14.70
2014,06,17,13,29,14.60
2014,06,17,13,30,14.50
2014,06,17,13,31,14.40
2014,06,17,13,32,14.40
2014,06,17,13,33,14.30
2014,06,17,13,34,14.30
2014,06,17,13,35,14.30
2014,06,17,13,36,14.30
2014,06,17,13,37,14.20
2014,06,17,13,38,14.10
2014,06,17,13,39,14.00
2014,06,17,13,40,13.90
2014,06,17,13,41,13.90
2014,06,17,13,42,13.90
2014,06,17,13,43,13.90
2014,06,17,13,44,13.90
2014,06,17,13,45,14.00
2014,06,17,13,46,14.00
2014,06,17,13,47,14.10
2014,06,17,13,48,14.20
2014,06,17,13,49,14.20
2014,06,17,13,50,14.10
2014,06,17,13,51,14.10
2014,06,17,13,52,14.10
2014,06,17,13,53,14.20
2014,06,17,13,54,14.20
2014,06,17,13,55,14.10
2014,06,17,13,56,14.10
2014,06,17,13,57,14.10
2014,06,17,13,58,14.20
2014,06,17,13,59,14.30
2014,06,17,14,00,14.40
2014,06,17,14,01,14.50
2014,06,17,14,02,14.60
2014,06,17,14,03,14.60
2014,06,17,14,04,14.50
2014,06,17,14,05,14.30
2014,06,17,14,06,14.20
2014,06,17,14,07,14.10
2014,06,17,14,08,14.10
2014,06,17,14,09,14.00
2014,06,17,14,10,14.00
2014,06,17,14,11,13.90
2014,06,17,14,12,13.90
2014,06,17,14,13,13.90
2014,06,17,14,14,13.90
2014,06,17,14,15,13.90
2014,06,17,14,16,13.90
2014,06,17,14,17,14.00
2014,06,17,14,18,14.10
2014,06,17,14,19,14.00
2014,06,17,14,20,14.00
2014,06,17,14,21,14.10
2014,06,17,14,22,14.20
2014,06,17,14,23,14.30
2014,06,17,14,24,14.50
2014,06,17,14,25,14.50
2014,06,17,14,26,14.60
2014,06,17,14,27,14.70
2014,06,17,14,28,14.70
2014,06,17,14,29,14.80
2014,06,17,14,30,14.70
2014,06,17,14,31,14.60
2014,06,17,14,32,14.50
2014,06,17,14,33,14.40
2014,06,17,14,34,14.40
2014,06,17,14,35,14.30
2014,06,17,14,36,14.20
2014,06,17,14,37,14.10
2014,06,17,14,38,14.00
2014,06,17,14,39,14.00
2014,06,17,14,40,14.00
2014,06,17,14,41,14.00
2014,06,17,14,42,14.00
2014,06,17,14,43,14.10
2014,06,17,14,44,14.10
2014,06,17,14,45,14.20
2014,06,17,14,46,14.20
2014,06,17,14,47,14.30
2014,06,17,14,48,14.30
2014,06,17,14,49,14.40
2014,06,17,14,50,14.50
2014,06,17,14,51,14.50
2014,06,17,14,52,14.60
2014,06,17,14,53,14.60
2014,06,17,14,54,14.50
2014,06,17,14,55,14.40
2014,06,17,14,56,14.40
2014,06,17,14,57,14.30
2014,06,17,14,58,14.30
2014,06,17,14,59,14.30
2014,06,17,15,00,14.40
2014,06,17,15,01,14.50
2014,06,17,15,02,14.60
2014,06,17,15,03,14.80
2014,06,17,15,04,14.90
2014,06,17,15,05,15.00
2014,06,17,15,06,15.10
2014,06,17,15,07,15.10
2014,06,17,15,08,15.20
2014,06,17,15,09,15.30
2014,06,17,15,10,15.30
2014,06,17,15,11,15.30
2014,06,17,15,12,15.30
2014,06,17,15,13,15.30
2014,06,17,15,14,15.40
2014,06,17,15,15,15.40
2014,06,17,15,16,15.50
2014,06,17,15,17,15.60
2014,06,17,15,18,15.50
2014,06,17,15,19,15.50
2014,06,17,15,20,15.40
2014,06,17,15,21,15.40
2014,06,17,15,22,15.30
2014,06,17,15,23,15.30
2014,06,17,15,24,15.40
2014,06,17,15,25,15.50
2014,06,17,15,26,15.60
2014,06,17,15,27,15.60
2014,06,17,15,28,15.60
2014,06,17,15,29,15.60
2014,06,17,15,30,15.50
2014,06,17,15,31,15.50
2014,06,17,15,32,15.40
2014,06,17,15,33,15.30
2014,06,17,15,34,15.30
2014,06,17,15,35,15.30
2014,06,17,15,36,15.40
2014,06,17,15,37,15.40
2014,06,17,15,38,15.50
2014,06,17,15,39,15.50
2014,06,17,15,40,15.40
2014,06,17,15,41,15.40
2014,06,17,15,42,15.40
2014,06,17,15,43,15.40
2014,06,17,15,44,15.30
2014,06,17,15,45,15.30
2014,06,17,15,46,15.30
2014,06,17,15,47,15.30
2014,06,17,15,48,15.30
2014,06,17,15,49,15.30
2014,06,17,15,50,15.40
2014,06,17,15,51,15.50
2014,06,17,15,52,15.50
2014,06,17,15,53,15.70
2014,06,17,15,54,15.70
2014,06,17,15,55,15.80
2014,06,17,15,56,15.90
2014,06,17,15,57,15.90
2014,06,17,15,58,15.90
2014,06,17,15,59,15.80
2014,06,17,16,00,15.70
2014,06,17,16,01,15.70
2014,06,17,16,02,15.60
2014,06,17,16,03,15.60
2014,06,17,16,04,15.50
2014,06,17,16,05,15.40
2014,06,17,16,06,15.30
2014,06,17,16,07,15.30
2014,06,17,16,08,15.20
2014,06,17,16,09,15.20
2014,06,17,16,10,15.20
2014,06,17,16,11,15.20
2014,06,17,16,12,15.20
2014,06,17,16,13,15.10
2014,06,17,16,14,15.10
2014,06,17,16,15,15.10
2014,06,17,16,16,15.20
2014,06,17,16,17,15.20
2014,06,17,16,18,15.30
2014,06,17,16,19,15.30
2014,06,17,16,20,15.40
2014,06,17,16,21,15.50
2014,06,17,16,22,15.50
2014,06,17,16,23,15.50
2014,06,17,16,24,15.40
2014,06,17,16,25,15.40
2014,06,17,16,26,15.40
2014,06,17,16,27,15.30
2014,06,17,16,28,15.20
2014,06,17,16,29,15.10
2014,06,17,16,30,15.10
2014,06,17,16,31,15.00
2014,06,17,16,32,15.00
2014,06,17,16,33,15.00
2014,06,17,16,34,14.90
2014,06,17,16,35,14.90
2014,06,17,16,36,14.80
2014,06,17,16,37,14.80
2014,06,17,16,38,14.80
2014,06,17,16,39,14.80
2014,06,17,16,40,14.70
2014,06,17,16,41,14.60
2014,06,17,16,42,14.50
2014,06,17,16,43,14.50
2014,06,17,16,44,14.40
2014,06,17,16,45,14.40
2014,06,17,16,46,14.40
2014,06,17,16,47,14.40
2014,06,17,16,48,14.50
2014,06,17,16,49,14.60
2014,06,17,16,50,14.60
2014,06,17,16,51,14.50
2014,06,17,16,52,14.50
2014,06,17,16,53,14.40
2014,06,17,16,54,14.40
2014,06,17,16,55,14.40
2014,06,17,16,56,14.40
2014,06,17,16,57,14.50
2014,06,17,16,58,14.50
2014,06,17,16,59,14.50
2014,06,17,17,00,14.50
2014,06,17,17,01,14.50
2014,06,17,17,02,14.50
2014,06,17,17,03,14.60
2014,06,17,17,04,14.60
2014,06,17,17,05,14.60
2014,06,17,17,06,14.60
2014,06,17,17,07,14.60
2014,06,17,17,08,14.70
2014,06,17,17,09,14.70
2014,06,17,17,10,14.70
2014,06,17,17,11,14.70
2014,06,17,17,12,14.70
2014,06,17,17,13,14.60
2014,06,17,17,14,14.60
2014,06,17,17,15,14.50
2014,06,17,17,16,14.40
2014,06,17,17,17,14.40
2014,06,17,17,18,14.40
2014,06,17,17,19,14.40
2014,06,17,17,20,14.40
2014,06,17,17,21,14.40
2014,06,17,17,22,14.40
2014,06,17,17,23,14.30
2014,06,17,17,24,14.30
2014,06,17,17,25,14.30
2014,06,17,17,26,14.30
2014,06,17,17,27,14.30
2014,06,17,17,28,14.30
2014,06,17,17,29,14.20
2014,06,17,17,30,14.20
2014,06,17,17,31,14.20
2014,06,17,17,32,14.10
2014,06,17,17,33,14.10
2014,06,17,17,34,14.00